EW2811 Weather Reports


time (UTC)temp
F
wind
direction
speed
knots
gust
knots
rain 1hr
in
rain 24hr
in
rain mn
in
humidity
%
barometer
mb
20260504050144 55 191 0.0 0.0 0.00 0.00 0.00 54 1001.3
20260504045149 52 287 0.0 0.0 0.00 0.00 0.00 62 1001.7
20260504045143 53 260 0.0 0.0 0.00 0.00 0.00 58 1001.5
20260504043143 52 287 0.0 0.0 0.00 0.00 0.00 62 1001.9
20260504042141 52 287 0.0 0.0 0.00 0.00 0.00 60 1002.1
20260504041142 53 287 0.0 0.0 0.00 0.00 0.00 58 1002.5
20260504041138 53 287 0.0 0.0 0.00 0.00 0.00 59 1002.3
20260504040248 53 287 0.0 0.0 0.00 0.00 0.00 56 1002.8
20260504035136 53 287 0.0 0.0 0.00 0.00 0.00 58 1002.7
20260504033136 54 287 0.0 0.0 0.00 0.00 0.00 57 1003.1
20260504032141 55 287 0.0 0.0 0.00 0.00 0.00 55 1003.4
20260504032137 54 287 0.0 0.0 0.00 0.00 0.00 56 1003.3
20260504030136 55 287 0.0 0.0 0.00 0.00 0.00 55 1003.5
20260504025136 56 288 0.0 0.0 0.00 0.00 0.00 54 1003.6
20260504024142 58 284 0.0 0.0 0.00 0.00 0.00 47 1003.7
20260504024136 57 288 0.0 0.0 0.00 0.00 0.00 51 1003.7
20260504023137 57 286 0.0 0.0 0.00 0.00 0.00 49 1003.7
20260504021137 59 283 0.0 0.0 0.00 0.00 0.00 46 1003.7
20260504020141 61 283 0.0 0.0 0.00 0.00 0.00 41 1003.7
20260504020137 60 283 0.0 0.0 0.00 0.00 0.00 43 1003.7
20260504015137 62 283 0.0 0.0 0.00 0.00 0.00 42 1003.6
20260504013136 63 283 0.0 0.0 0.00 0.00 0.00 38 1003.7
20260504012136 64 283 0.0 0.0 0.00 0.00 0.00 34 1003.8
20260504011134 65 271 0.0 0.0 0.00 0.00 0.00 35 1003.8
20260504010132 65 271 0.0 0.0 0.00 0.00 0.00 33 1003.8
20260504005136 67 266 0.0 0.0 0.00 0.00 0.00 32 1004.0
20260504005132 66 269 0.0 0.0 0.00 0.00 0.00 35 1003.9
20260504004131 67 269 0.0 0.0 0.00 0.00 0.00 32 1004.1
20260504003235 67 266 0.0 0.0 0.00 0.00 0.00 30 1004.0
20260504001130 67 305 0.0 0.0 0.00 0.00 0.00 31 1004.1
20260504000131 68 270 0.0 0.0 0.00 0.00 0.00 29 1004.1
20260503235135 69 269 0.0 0.0 0.00 0.00 0.00 27 1004.2
20260503235131 69 308 0.0 0.0 0.00 0.00 0.00 29 1004.1
20260503233128 70 248 0.0 0.0 0.00 0.00 0.00 27 1004.1
20260503232132 70 246 0.0 0.0 0.00 0.00 0.00 26 1004.3
20260503232128 70 186 0.0 0.0 0.00 0.00 0.00 25 1004.2
20260503231238 71 209 0.0 0.0 0.00 0.00 0.00 25 1004.4
20260503230128 70 303 0.0 0.0 0.00 0.00 0.00 25 1004.4
20260503224130 71 298 0.0 0.0 0.00 0.00 0.00 23 1004.7
20260503224126 71 355 0.0 0.0 0.00 0.00 0.00 25 1004.6
20260503222128 71 284 0.0 0.0 0.00 0.00 0.00 25 1004.7
20260503221127 70 321 0.0 0.0 0.00 0.00 0.00 26 1004.8
20260503220131 70 258 0.0 0.0 0.00 0.00 0.00 27 1005.0
20260503220126 70 258 0.0 0.0 0.00 0.00 0.00 24 1004.9
20260503215233 70 327 0.0 0.0 0.00 0.00 0.00 25 1005.1
20260503214239 70 302 0.0 0.0 0.00 0.00 0.00 27 1005.1
20260503214234 69 279 0.0 0.9 0.00 0.00 0.00 23 1005.1
20260503213234 69 281 0.0 0.0 0.00 0.00 0.00 26 1005.1
20260503210122 69 285 0.0 0.0 0.00 0.00 0.00 25 1005.3
20260503205122 69 55 0.0 0.0 0.00 0.00 0.00 26 1005.4
20260503204122 70 308 0.0 0.0 0.00 0.00 0.00 25 1005.4
20260503203131 70 277 0.0 0.0 0.00 0.00 0.00 29 1005.5
20260503203124 71 300 0.0 0.9 0.00 0.00 0.00 26 1005.4
20260503202123 70 290 0.0 0.0 0.00 0.00 0.00 29 1005.4
20260503201122 70 307 0.0 0.9 0.00 0.00 0.00 27 1005.6
20260503195122 69 332 0.0 0.0 0.00 0.00 0.00 25 1005.7
20260503194122 70 264 0.0 0.9 0.00 0.00 0.00 26 1005.8
20260503193122 70 290 0.0 0.0 0.00 0.00 0.00 30 1005.8
20260503192130 70 294 0.0 0.0 0.00 0.00 0.00 33 1005.9
20260503192121 70 291 0.0 0.0 0.00 0.00 0.00 28 1005.9
20260503190122 69 297 0.0 0.9 0.00 0.00 0.00 31 1006.1
20260503185127 69 0 0.0 0.0 0.00 0.00 0.00 33 1006.1
20260503185122 69 315 0.0 0.0 0.00 0.00 0.00 32 1006.0
20260503183127 68 300 0.0 3.5 0.00 0.00 0.00 38 1006.2
20260503183121 69 254 0.0 0.0 0.00 0.00 0.00 33 1006.1
20260503181126 67 293 0.0 4.3 0.00 0.00 0.00 39 1006.3
20260503181120 68 318 0.0 1.7 0.00 0.00 0.00 37 1006.2
20260503175120 67 270 0.0 7.0 0.00 0.00 0.00 38 1006.5
20260503174118 67 306 0.0 3.5 0.00 0.00 0.00 37 1006.4
20260503173117 67 50 0.0 0.0 0.00 0.00 0.00 39 1006.5
20260503172117 67 299 0.0 7.0 0.00 0.00 0.00 39 1006.5
20260503171117 67 300 0.0 0.9 0.00 0.00 0.00 40 1006.6
20260503170115 67 301 0.0 4.3 0.00 0.00 0.00 41 1006.5
20260503160115 65 298 0.0 3.5 0.00 0.00 0.00 43 1006.4
20260503150111 62 266 0.0 1.7 0.00 0.00 0.00 49 1006.2
20260503140109 58 13 0.0 0.0 0.00 0.00 0.00 54 1006.1
20260503131108 55 306 0.0 0.0 0.00 0.00 0.00 57 1005.6
20260503130112 54 285 0.0 0.0 0.00 0.00 0.00 59 1005.5
20260503130108 55 247 0.0 0.0 0.00 0.00 0.00 54 1005.6
20260503120107 50 169 0.0 0.0 0.00 0.00 0.00 67 1005.0
20260503110107 53 161 0.0 0.0 0.00 0.00 0.00 57 1004.6
20260503100105 56 158 0.0 0.0 0.00 0.00 0.00 51 1004.7
20260503081101 56 198 0.0 0.0 0.00 0.00 0.00 58 1005.3
20260503081057 57 176 0.0 0.0 0.00 0.00 0.00 58 1005.2
20260503072100 56 175 0.0 0.0 0.00 0.00 0.00 57 1005.7
20260503072055 56 178 0.0 0.0 0.00 0.00 0.00 56 1005.9
20260503071209 57 183 0.0 0.0 0.00 0.00 0.00 53 1006.4
20260503071203 56 164 0.0 0.0 0.00 0.00 0.00 55 1006.1